Weather in Plotinka

Russia / Nizhny Novgorod Oblast'     56°11′10″N   44°46′21″E
temp.,
°C
wind,
m/s
gust,
m/s
humid.,
%
clouds,
%
prec.,
mm/h
press.,
hPa
HPBL,
m
12 april, mon
mon1200:000e0096100 0.0 103510
03:00−1ene1198100 0.0 103611
06:000e2599100 0.0 1037107
09:00+5e3697100 0.0 1038257
12:00+8e4691100 0.0 1037423
15:00+10e4881100 0.0 1037585
18:00+8e41192100 0.0 1036559
21:00+6ese41392100 0.0 1036404
13 april, tue
tue1300:00+4ese31094100 0.0 1035262
03:00+4ese399899 0.0 1034199
06:00+5ese2897100 0.0 1033157
09:00+11sse387879 0.0 1032301
12:00+16s486293 0.0 1032726
15:00+18s484678 0.0 10301351
18:00+13se376875 0.0 1029126
21:00+10sse377042 0.0 1029102
14 april, wed
wed1400:00+8s347470 0.0 102957
03:00+7sse227693 0.0 102923
06:00+6sse237682 0.0 102854
09:00+12sse355423 0.0 1028342
12:00+16sse463810 0.0 1026920
15:00+18sse47350 0.0 10241244
18:00+14sse26520 0.0 1023118
21:00+10sse226917 0.0 102332
15 april, thu
thu1500:00+9sse22765 0.0 102230
03:00+7s22805 0.0 102210
06:00+7s11785 0.0 102210
09:00+14s23554 0.0 1021339
12:00+17s23405 0.0 10201281
15:00+18sw22359 0.0 10191726
18:00+16wnw0147100 0.0 101811
21:00+12ne115796 0.0 101910
16 april, fri
fri1600:00+10ne016396 0.0 101910
03:00+8n227296 0.0 101915
06:00+7nne379181 0.0 1020176
09:00+11ne467227 0.0 1021591
12:00+15ne455639 0.0 10211177
15:00+12ne576376 0.0 1023912
18:00+10ene386484 0.0 10241008
21:00+7ne412595 0.0 1026492